SUR4606 SAVT-SAEZ

Flight info

Callsign SUR4606
Flight time 1h 35m
Altitude 37000
Route LOMU2C LOMUS UT693 BCA UW22 VALOS DCT
Aircraft B738/M-SDE3FGHIRWY/LB1

Departure

Time 2026-05-08 20:35
Airport Almirante Marco Andres Zar Airport (SAVT)

Arrival

Time 2026-05-08 22:10
Airport Ezeiza International Airport - Ministro Pistarini (SAEZ)
Time Latitude Longitude Altitude Speed Heading
2026-05-08 20:17 -43.20962 -65.28053 117 ft 0 kts 309°
2026-05-08 20:21 -43.20962 -65.28052 117 ft 0 kts 309°
2026-05-08 20:23 -43.20963 -65.28052 117 ft 0 kts 309°
2026-05-08 20:27 -43.20964 -65.28072 116 ft 6 kts 245°
2026-05-08 20:27 -43.21006 -65.28111 117 ft 9 kts 176°
2026-05-08 20:27 -43.21074 -65.28084 119 ft 11 kts 163°
2026-05-08 20:27 -43.21140 -65.28142 117 ft 15 kts 245°
2026-05-08 20:28 -43.21177 -65.28268 116 ft 14 kts 248°
2026-05-08 20:28 -43.21211 -65.28391 116 ft 14 kts 249°
2026-05-08 20:28 -43.21242 -65.28511 115 ft 13 kts 246°
2026-05-08 20:28 -43.21307 -65.28583 115 ft 13 kts 179°
2026-05-08 20:29 -43.21388 -65.28540 119 ft 12 kts 146°
2026-05-08 20:29 -43.21423 -65.28438 120 ft 12 kts 91°
2026-05-08 20:29 -43.21404 -65.28324 119 ft 13 kts 71°
2026-05-08 20:29 -43.21368 -65.28192 121 ft 16 kts 69°
2026-05-08 20:30 -43.21325 -65.28035 118 ft 19 kts 69°
2026-05-08 20:30 -43.21271 -65.27843 119 ft 24 kts 69°
2026-05-08 20:30 -43.21208 -65.27618 114 ft 27 kts 69°
2026-05-08 20:30 -43.21144 -65.27384 116 ft 26 kts 69°
2026-05-08 20:31 -43.21077 -65.27149 117 ft 27 kts 69°
2026-05-08 20:31 -43.21009 -65.26907 118 ft 28 kts 66°
2026-05-08 20:31 -43.20939 -65.26649 116 ft 30 kts 70°
2026-05-08 20:31 -43.20892 -65.26482 115 ft 25 kts 68°
2026-05-08 20:32 -43.20803 -65.26175 115 ft 27 kts 71°
2026-05-08 20:32 -43.20745 -65.25951 116 ft 24 kts 69°
2026-05-08 20:32 -43.20702 -65.25800 118 ft 7 kts 68°
2026-05-08 20:32 -43.20687 -65.25750 118 ft 7 kts 69°
2026-05-08 20:33 -43.20666 -65.25680 118 ft 11 kts 61°
2026-05-08 20:33 -43.20640 -65.25634 118 ft 5 kts 68°
2026-05-08 20:33 -43.20653 -65.25630 118 ft 4 kts 221°
2026-05-08 20:33 -43.20673 -65.25685 118 ft 0 kts 248°
2026-05-08 20:34 -43.20868 -65.26368 114 ft 111 kts 249°
2026-05-08 20:35 -43.21191 -65.27670 428 ft 163 kts 242°
2026-05-08 20:35 -43.21519 -65.29233 1439 ft 177 kts 242°
2026-05-08 20:35 -43.21944 -65.30875 2462 ft 189 kts 236°
2026-05-08 20:35 -43.22477 -65.32622 3287 ft 208 kts 236°
2026-05-08 20:36 -43.22805 -65.33687 3788 ft 213 kts 236°
2026-05-08 20:37 -43.23243 -65.35158 4395 ft 218 kts 237°
2026-05-08 20:37 -43.23813 -65.37124 5080 ft 224 kts 238°
2026-05-08 20:37 -43.24077 -65.39336 5783 ft 252 kts 264°
2026-05-08 20:38 -43.23628 -65.41750 6626 ft 273 kts 287°
2026-05-08 20:38 -43.22477 -65.43910 7451 ft 291 kts 314°
2026-05-08 20:38 -43.20679 -65.45293 8220 ft 302 kts 346°
2026-05-08 20:38 -43.18610 -65.45439 9077 ft 297 kts 16°
2026-05-08 20:39 -43.16640 -65.44659 9939 ft 295 kts 26°
2026-05-08 20:39 -43.14725 -65.43712 10676 ft 297 kts 30°
2026-05-08 20:39 -43.13082 -65.42156 11372 ft 280 kts 60°
2026-05-08 20:39 -43.12076 -65.39965 12159 ft 268 kts 76°
2026-05-08 20:40 -43.11379 -65.37609 12929 ft 268 kts 80°
2026-05-08 20:40 -43.10739 -65.35205 13723 ft 271 kts 81°
2026-05-08 20:40 -43.10087 -65.32764 14418 ft 275 kts 80°
2026-05-08 20:40 -43.09410 -65.30294 15103 ft 279 kts 79°
2026-05-08 20:41 -43.08713 -65.27806 15884 ft 279 kts 79°
2026-05-08 20:41 -43.08010 -65.25311 16569 ft 283 kts 79°
2026-05-08 20:41 -43.07293 -65.22776 17197 ft 289 kts 79°
2026-05-08 20:41 -43.06528 -65.20121 17395 ft 314 kts 74°
2026-05-08 20:42 -43.05145 -65.17582 17529 ft 358 kts 46°
2026-05-08 20:42 -43.02830 -65.15942 17704 ft 396 kts 19°
2026-05-08 20:42 -43.00045 -65.15470 17881 ft 421 kts
2026-05-08 20:42 -42.97057 -65.15412 18162 ft 435 kts
2026-05-08 20:43 -42.93968 -65.15378 18680 ft 440 kts
2026-05-08 20:43 -42.90938 -65.15257 19319 ft 441 kts
2026-05-08 20:43 -42.87878 -65.15040 19949 ft 442 kts
2026-05-08 20:43 -42.84799 -65.14771 20526 ft 445 kts
2026-05-08 20:44 -42.81694 -65.14484 21050 ft 449 kts
2026-05-08 20:44 -42.78581 -65.13997 21548 ft 452 kts 11°
2026-05-08 20:44 -42.75475 -65.13329 22136 ft 453 kts 12°
2026-05-08 20:44 -42.72348 -65.12641 22703 ft 455 kts 11°
2026-05-08 20:45 -42.69199 -65.11990 23208 ft 459 kts 11°
2026-05-08 20:45 -42.66053 -65.11224 23686 ft 460 kts 19°
2026-05-08 20:45 -42.63153 -65.09464 24103 ft 455 kts 33°
2026-05-08 20:45 -42.60389 -65.07348 24609 ft 455 kts 33°
2026-05-08 20:46 -42.57653 -65.05293 25052 ft 457 kts 32°
2026-05-08 20:46 -42.54845 -65.03259 25519 ft 458 kts 32°
2026-05-08 20:46 -42.52013 -65.01248 25937 ft 460 kts 31°
2026-05-08 20:46 -42.49166 -64.99238 26320 ft 462 kts 32°
2026-05-08 20:47 -42.46310 -64.97217 26746 ft 464 kts 31°
2026-05-08 20:47 -42.43445 -64.95188 27140 ft 465 kts 32°
2026-05-08 20:47 -42.40570 -64.93152 27500 ft 468 kts 32°
2026-05-08 20:47 -42.37679 -64.91105 27894 ft 469 kts 31°
2026-05-08 20:48 -42.34784 -64.89058 28274 ft 471 kts 31°
2026-05-08 20:48 -42.31869 -64.87000 28653 ft 472 kts 31°
2026-05-08 20:48 -42.28943 -64.84949 28978 ft 475 kts 31°
2026-05-08 20:48 -42.25994 -64.82913 29317 ft 477 kts 31°
2026-05-08 20:49 -42.23028 -64.80880 29625 ft 479 kts 31°
2026-05-08 20:49 -42.20058 -64.78850 30038 ft 478 kts 31°
2026-05-08 20:49 -42.17106 -64.76835 30572 ft 473 kts 30°
2026-05-08 20:49 -42.14167 -64.74828 30820 ft 475 kts 31°
2026-05-08 20:50 -42.11206 -64.72801 30994 ft 479 kts 31°
2026-05-08 20:50 -42.08239 -64.70773 31382 ft 477 kts 30°
2026-05-08 20:50 -42.05277 -64.68747 31674 ft 478 kts 32°
2026-05-08 20:50 -42.02297 -64.66709 31809 ft 482 kts 30°
2026-05-08 20:51 -41.99312 -64.64674 32258 ft 478 kts 30°
2026-05-08 20:51 -41.96389 -64.62684 32614 ft 478 kts 30°
2026-05-08 20:51 -41.93411 -64.60656 32748 ft 482 kts 30°
2026-05-08 20:51 -41.90423 -64.58628 33101 ft 480 kts 30°
2026-05-08 20:52 -41.87449 -64.56612 33525 ft 478 kts 32°
2026-05-08 20:52 -41.84465 -64.54589 33695 ft 481 kts 31°
2026-05-08 20:52 -41.81478 -64.52564 34000 ft 481 kts 30°
2026-05-08 20:52 -41.78490 -64.50540 34308 ft 479 kts 30°
2026-05-08 20:53 -41.75504 -64.48521 34494 ft 481 kts 32°
2026-05-08 20:53 -41.72509 -64.46493 34653 ft 483 kts 30°
2026-05-08 20:53 -41.69500 -64.44464 34922 ft 482 kts 30°
2026-05-08 20:53 -41.66497 -64.42442 35133 ft 483 kts 29°
2026-05-08 20:54 -41.63521 -64.40440 35263 ft 486 kts 31°
2026-05-08 20:54 -41.60503 -64.38409 35593 ft 483 kts 29°
2026-05-08 20:54 -41.57511 -64.36394 35884 ft 482 kts 31°
2026-05-08 20:54 -41.54514 -64.34377 36121 ft 482 kts 30°
2026-05-08 20:55 -41.51526 -64.32376 36519 ft 477 kts 29°
2026-05-08 20:55 -41.48568 -64.30394 36820 ft 475 kts 29°
2026-05-08 20:55 -41.45601 -64.28407 36895 ft 479 kts 28°
2026-05-08 20:56 -41.39636 -64.24418 36961 ft 484 kts 29°
2026-05-08 20:56 -41.33559 -64.20364 36956 ft 491 kts 30°
2026-05-08 20:57 -41.27411 -64.16277 36941 ft 495 kts 30°
2026-05-08 20:57 -41.21221 -64.12164 36954 ft 497 kts 29°
2026-05-08 20:58 -41.15033 -64.08065 36939 ft 497 kts 28°
2026-05-08 20:58 -41.12046 -64.05790 36904 ft 492 kts 41°
2026-05-08 20:58 -41.09679 -64.02686 36975 ft 480 kts 58°
2026-05-08 20:59 -41.05966 -63.95350 36909 ft 477 kts 60°
2026-05-08 20:59 -41.02350 -63.87978 36929 ft 476 kts 60°
2026-05-08 21:00 -40.98703 -63.80711 36896 ft 477 kts 59°
2026-05-08 21:00 -40.94994 -63.73429 36910 ft 477 kts 57°
2026-05-08 21:01 -40.91092 -63.66314 36788 ft 485 kts 45°
2026-05-08 21:01 -40.88370 -63.63693 36957 ft 485 kts 32°
2026-05-08 21:01 -40.85417 -63.61512 36841 ft 486 kts 30°
2026-05-08 21:02 -40.79431 -63.57347 36884 ft 486 kts 30°
2026-05-08 21:02 -40.73438 -63.53165 36860 ft 487 kts 30°
2026-05-08 21:03 -40.67521 -63.48956 36854 ft 486 kts 31°
2026-05-08 21:03 -40.61580 -63.44697 36871 ft 486 kts 30°
2026-05-08 21:04 -40.55638 -63.40442 36858 ft 486 kts 31°
2026-05-08 21:04 -40.49700 -63.36198 36842 ft 485 kts 30°
2026-05-08 21:05 -40.43763 -63.31964 36849 ft 484 kts 30°
2026-05-08 21:05 -40.37836 -63.27750 36844 ft 484 kts 30°
2026-05-08 21:06 -40.31954 -63.23576 36835 ft 483 kts 30°
2026-05-08 21:06 -40.26024 -63.19381 36833 ft 483 kts 30°
2026-05-08 21:07 -40.20109 -63.15196 36820 ft 483 kts 30°
2026-05-08 21:07 -40.14189 -63.11018 36828 ft 484 kts 29°
2026-05-08 21:08 -40.08298 -63.06870 36816 ft 484 kts 29°
2026-05-08 21:08 -40.02366 -63.02701 36805 ft 484 kts 29°
2026-05-08 21:09 -39.96437 -62.98546 36800 ft 483 kts 29°
2026-05-08 21:09 -39.90516 -62.94401 36805 ft 483 kts 29°
2026-05-08 21:10 -39.84597 -62.90263 36796 ft 483 kts 30°
2026-05-08 21:10 -39.78675 -62.86135 36795 ft 483 kts 30°
2026-05-08 21:11 -39.72790 -62.82042 36808 ft 482 kts 29°
2026-05-08 21:11 -39.66867 -62.77928 36787 ft 483 kts 29°
2026-05-08 21:12 -39.60947 -62.73825 36786 ft 482 kts 29°
2026-05-08 21:12 -39.55021 -62.69724 36784 ft 481 kts 29°
2026-05-08 21:13 -39.49107 -62.65651 36772 ft 481 kts 28°
2026-05-08 21:13 -39.43179 -62.61754 36781 ft 480 kts 27°
2026-05-08 21:14 -39.37201 -62.57890 36775 ft 480 kts 27°
2026-05-08 21:14 -39.31243 -62.54026 36774 ft 479 kts 27°
2026-05-08 21:15 -39.25276 -62.50147 36772 ft 478 kts 27°
2026-05-08 21:15 -39.19332 -62.46285 36766 ft 479 kts 27°
2026-05-08 21:16 -39.13368 -62.42418 36767 ft 481 kts 27°
2026-05-08 21:16 -39.07345 -62.38521 36779 ft 486 kts 27°
2026-05-08 21:17 -39.01280 -62.34605 36766 ft 486 kts 27°
2026-05-08 21:17 -38.95316 -62.30762 36760 ft 480 kts 27°
2026-05-08 21:18 -38.89374 -62.26940 36771 ft 475 kts 27°
2026-05-08 21:18 -38.84428 -62.23763 36773 ft 474 kts 27°
2026-05-08 21:19 -38.77519 -62.19332 36782 ft 481 kts 27°
2026-05-08 21:19 -38.71512 -62.15420 36771 ft 487 kts 31°
2026-05-08 21:20 -38.65934 -62.10537 36767 ft 483 kts 37°
2026-05-08 21:20 -38.61454 -62.06344 36754 ft 477 kts 37°
2026-05-08 21:21 -38.56081 -62.01374 36766 ft 476 kts 36°
2026-05-08 21:21 -38.50688 -61.96472 36768 ft 475 kts 36°
2026-05-08 21:22 -38.45283 -61.91596 36761 ft 476 kts 36°
2026-05-08 21:22 -38.39865 -61.86720 36760 ft 479 kts 36°
2026-05-08 21:23 -38.34379 -61.81788 36774 ft 485 kts 35°
2026-05-08 21:23 -38.28882 -61.76854 36770 ft 486 kts 35°
2026-05-08 21:24 -38.23376 -61.71921 36762 ft 481 kts 35°
2026-05-08 21:24 -38.17923 -61.67044 36746 ft 478 kts 35°
2026-05-08 21:25 -38.12469 -61.62175 36762 ft 479 kts 35°
2026-05-08 21:25 -38.06995 -61.57297 36765 ft 481 kts 35°
2026-05-08 21:26 -38.01547 -61.52451 36750 ft 481 kts 35°
2026-05-08 21:26 -37.96064 -61.47584 36758 ft 481 kts 35°
2026-05-08 21:27 -37.90577 -61.42726 36751 ft 481 kts 35°
2026-05-08 21:27 -37.85081 -61.37869 36752 ft 481 kts 35°
2026-05-08 21:28 -37.79595 -61.33027 36739 ft 481 kts 34°
2026-05-08 21:28 -37.74114 -61.28198 36752 ft 480 kts 34°
2026-05-08 21:29 -37.68656 -61.23397 36753 ft 479 kts 34°
2026-05-08 21:29 -37.63182 -61.18593 36742 ft 479 kts 34°
2026-05-08 21:30 -37.57703 -61.13792 36744 ft 479 kts 34°
2026-05-08 21:30 -37.52233 -61.09007 36747 ft 478 kts 34°
2026-05-08 21:31 -37.46799 -61.04263 36754 ft 478 kts 34°
2026-05-08 21:31 -37.41335 -60.99501 36756 ft 478 kts 34°
2026-05-08 21:32 -37.35867 -60.94744 36740 ft 478 kts 34°
2026-05-08 21:32 -37.30393 -60.89992 36752 ft 478 kts 34°
2026-05-08 21:33 -37.24917 -60.85245 36749 ft 478 kts 34°
2026-05-08 21:33 -37.19442 -60.80507 36745 ft 478 kts 34°
2026-05-08 21:34 -37.13987 -60.75796 36740 ft 478 kts 34°
2026-05-08 21:34 -37.08505 -60.71069 36736 ft 478 kts 33°
2026-05-08 21:35 -37.03017 -60.66347 36747 ft 477 kts 33°
2026-05-08 21:35 -36.97537 -60.61639 36741 ft 477 kts 33°
2026-05-08 21:36 -36.92064 -60.56945 36738 ft 477 kts 33°
2026-05-08 21:36 -36.86593 -60.52261 36744 ft 476 kts 33°
2026-05-08 21:37 -36.81123 -60.47585 36748 ft 476 kts 33°
2026-05-08 21:37 -36.75703 -60.42959 36743 ft 475 kts 33°
2026-05-08 21:38 -36.70243 -60.38317 36736 ft 475 kts 32°
2026-05-08 21:38 -36.64772 -60.33699 36744 ft 474 kts 32°
2026-05-08 21:39 -36.59313 -60.29099 36747 ft 473 kts 33°
2026-05-08 21:39 -36.53858 -60.24503 36735 ft 473 kts 32°
2026-05-08 21:40 -36.48445 -60.19952 36742 ft 472 kts 32°
2026-05-08 21:40 -36.42997 -60.15383 36742 ft 472 kts 33°
2026-05-08 21:41 -36.34842 -60.08554 36732 ft 466 kts 32°
2026-05-08 21:41 -36.32196 -60.06339 36721 ft 451 kts 32°
2026-05-08 21:41 -36.29632 -60.04195 36720 ft 438 kts 32°
2026-05-08 21:42 -36.27142 -60.02115 36717 ft 425 kts 32°
2026-05-08 21:42 -36.24728 -60.00100 36713 ft 411 kts 32°
2026-05-08 21:42 -36.20058 -59.96213 36712 ft 406 kts 32°
2026-05-08 21:43 -36.17701 -59.94254 36444 ft 408 kts 31°
2026-05-08 21:43 -36.15345 -59.92298 35978 ft 408 kts 31°
2026-05-08 21:43 -36.12959 -59.90318 35099 ft 420 kts 31°
2026-05-08 21:43 -36.10480 -59.88264 34099 ft 436 kts 31°
2026-05-08 21:44 -36.07921 -59.86143 33007 ft 450 kts 31°
2026-05-08 21:44 -36.05290 -59.83964 31933 ft 461 kts 31°
2026-05-08 21:44 -36.02618 -59.81751 31185 ft 464 kts 31°
2026-05-08 21:44 -35.99949 -59.79538 30722 ft 459 kts 31°
2026-05-08 21:45 -35.97313 -59.77354 30337 ft 453 kts 31°
2026-05-08 21:45 -35.94705 -59.75195 29916 ft 449 kts 31°
2026-05-08 21:45 -35.92124 -59.73062 29389 ft 445 kts 31°
2026-05-08 21:45 -35.89556 -59.70944 28793 ft 443 kts 31°
2026-05-08 21:46 -35.87001 -59.68839 28205 ft 441 kts 31°
2026-05-08 21:46 -35.84457 -59.66744 27648 ft 439 kts 31°
2026-05-08 21:46 -35.81925 -59.64661 27114 ft 436 kts 31°
2026-05-08 21:46 -35.79409 -59.62592 26597 ft 434 kts 31°
2026-05-08 21:47 -35.76906 -59.60535 26075 ft 431 kts 31°
2026-05-08 21:47 -35.74418 -59.58492 25578 ft 429 kts 31°
2026-05-08 21:47 -35.71974 -59.56406 25085 ft 426 kts 38°
2026-05-08 21:47 -35.69865 -59.53884 24426 ft 422 kts 49°
2026-05-08 21:48 -35.68072 -59.51020 23631 ft 425 kts 52°
2026-05-08 21:48 -35.66290 -59.48100 22982 ft 428 kts 52°
2026-05-08 21:48 -35.64514 -59.45198 22604 ft 421 kts 52°
2026-05-08 21:48 -35.62760 -59.42348 22241 ft 415 kts 52°
2026-05-08 21:49 -35.61022 -59.39539 21786 ft 411 kts 52°
2026-05-08 21:49 -35.59298 -59.36767 21230 ft 406 kts 52°
2026-05-08 21:49 -35.57589 -59.34027 20601 ft 403 kts 52°
2026-05-08 21:49 -35.55888 -59.31304 20013 ft 400 kts 51°
2026-05-08 21:50 -35.54209 -59.28622 19576 ft 392 kts 51°
2026-05-08 21:50 -35.52557 -59.25983 19052 ft 388 kts 51°
2026-05-08 21:50 -35.50917 -59.23367 18493 ft 385 kts 51°
2026-05-08 21:50 -35.49289 -59.20772 17953 ft 382 kts 51°
2026-05-08 21:51 -35.47678 -59.18206 17368 ft 378 kts 51°
2026-05-08 21:51 -35.46083 -59.15666 16810 ft 374 kts 51°
2026-05-08 21:51 -35.44524 -59.13186 16262 ft 370 kts 51°
2026-05-08 21:51 -35.42942 -59.10670 15714 ft 366 kts 51°
2026-05-08 21:52 -35.41397 -59.08216 15247 ft 360 kts 51°
2026-05-08 21:52 -35.39882 -59.05810 14848 ft 354 kts 51°
2026-05-08 21:52 -35.38390 -59.03442 14451 ft 348 kts 51°
2026-05-08 21:52 -35.36924 -59.01117 14058 ft 342 kts 51°
2026-05-08 21:53 -35.35483 -58.98835 13681 ft 337 kts 51°
2026-05-08 21:53 -35.34051 -58.96567 13277 ft 336 kts 51°
2026-05-08 21:53 -35.32641 -58.94337 12875 ft 335 kts 51°
2026-05-08 21:53 -35.31217 -58.92086 12487 ft 335 kts 51°
2026-05-08 21:54 -35.29779 -58.89814 12106 ft 341 kts 51°
2026-05-08 21:54 -35.28318 -58.87508 11704 ft 342 kts 51°
2026-05-08 21:54 -35.26878 -58.85234 11311 ft 335 kts 51°
2026-05-08 21:54 -35.25463 -58.83001 10931 ft 329 kts 50°
2026-05-08 21:55 -35.24057 -58.80784 10553 ft 323 kts 51°
2026-05-08 21:55 -35.22711 -58.78662 10307 ft 315 kts 50°
2026-05-08 21:55 -35.21387 -58.76577 10162 ft 307 kts 50°
2026-05-08 21:56 -35.18804 -58.72514 9908 ft 300 kts 50°
2026-05-08 21:56 -35.17524 -58.70502 9781 ft 290 kts 50°
2026-05-08 21:56 -35.16302 -58.68582 9539 ft 283 kts 50°
2026-05-08 21:56 -35.15117 -58.66722 9262 ft 279 kts 50°
2026-05-08 21:57 -35.13935 -58.64868 8987 ft 274 kts 50°
2026-05-08 21:57 -35.12760 -58.63027 8707 ft 268 kts 51°
2026-05-08 21:57 -35.11621 -58.61242 8457 ft 266 kts 51°
2026-05-08 21:57 -35.10484 -58.59461 8208 ft 267 kts 51°
2026-05-08 21:58 -35.09319 -58.57639 7969 ft 279 kts 51°
2026-05-08 21:58 -35.08101 -58.55735 7691 ft 287 kts 51°
2026-05-08 21:58 -35.06868 -58.53806 7227 ft 290 kts 52°
2026-05-08 21:58 -35.05619 -58.51853 6707 ft 292 kts 52°
2026-05-08 21:59 -35.04373 -58.49906 6237 ft 291 kts 52°
2026-05-08 21:59 -35.03128 -58.47960 5743 ft 291 kts 52°
2026-05-08 21:59 -35.01886 -58.46019 5253 ft 291 kts 51°
2026-05-08 21:59 -35.00640 -58.44076 4754 ft 291 kts 50°
2026-05-08 22:00 -34.99396 -58.42135 4261 ft 290 kts 50°
2026-05-08 22:00 -34.98167 -58.40220 3769 ft 290 kts 50°
2026-05-08 22:00 -34.96910 -58.38262 3271 ft 289 kts 49°
2026-05-08 22:00 -34.95682 -58.36349 2988 ft 280 kts 49°
2026-05-08 22:01 -34.94524 -58.34544 2992 ft 268 kts 49°
2026-05-08 22:01 -34.93410 -58.32810 2991 ft 252 kts 48°
2026-05-08 22:01 -34.92346 -58.31156 2798 ft 244 kts 48°
2026-05-08 22:01 -34.91314 -58.29554 2645 ft 237 kts 48°
2026-05-08 22:02 -34.90315 -58.28006 2579 ft 225 kts 48°
2026-05-08 22:02 -34.89329 -58.26609 2521 ft 208 kts 38°
2026-05-08 22:02 -34.88187 -58.25733 2494 ft 180 kts
2026-05-08 22:02 -34.87100 -58.25597 2521 ft 144 kts 336°
2026-05-08 22:03 -34.86308 -58.26100 2487 ft 119 kts 298°
2026-05-08 22:03 -34.86001 -58.26961 2540 ft 115 kts 280°
2026-05-08 22:03 -34.85766 -58.27956 2722 ft 128 kts 279°
2026-05-08 22:03 -34.85541 -58.29000 2637 ft 127 kts 278°
2026-05-08 22:04 -34.85360 -58.30017 2618 ft 119 kts 275°
2026-05-08 22:04 -34.85236 -58.31000 2608 ft 117 kts 273°
2026-05-08 22:04 -34.85123 -58.31984 2608 ft 118 kts 275°
2026-05-08 22:04 -34.85005 -58.32984 2590 ft 120 kts 272°
2026-05-08 22:05 -34.84900 -58.33990 2579 ft 121 kts 273°
2026-05-08 22:05 -34.84802 -58.35012 2593 ft 122 kts 273°
2026-05-08 22:05 -34.84704 -58.36045 2592 ft 125 kts 272°
2026-05-08 22:05 -34.84621 -58.37087 2465 ft 122 kts 272°
2026-05-08 22:06 -34.84558 -58.37773 2378 ft 120 kts 272°
2026-05-08 22:06 -34.84436 -58.38779 2192 ft 124 kts 274°
2026-05-08 22:06 -34.84326 -58.39820 2025 ft 124 kts 271°
2026-05-08 22:06 -34.84232 -58.40863 1816 ft 125 kts 274°
2026-05-08 22:07 -34.84093 -58.41882 1720 ft 119 kts 276°
2026-05-08 22:07 -34.83958 -58.42856 1552 ft 117 kts 275°
2026-05-08 22:07 -34.83840 -58.43776 1476 ft 106 kts 275°
2026-05-08 22:07 -34.83710 -58.44670 1377 ft 110 kts 275°
2026-05-08 22:08 -34.83597 -58.45619 1278 ft 116 kts 274°
2026-05-08 22:08 -34.83487 -58.46628 1092 ft 123 kts 276°
2026-05-08 22:08 -34.83303 -58.47631 901 ft 121 kts 280°
2026-05-08 22:08 -34.83122 -58.48622 711 ft 119 kts 279°
2026-05-08 22:09 -34.82951 -58.49589 528 ft 116 kts 283°
2026-05-08 22:09 -34.82768 -58.50578 388 ft 129 kts 283°
2026-05-08 22:09 -34.82561 -58.51700 191 ft 134 kts 283°
2026-05-08 22:09 -34.82378 -58.52716 72 ft 111 kts 281°
2026-05-08 22:10 -34.82235 -58.53518 68 ft 80 kts 282°
2026-05-08 22:10 -34.82132 -58.54089 69 ft 63 kts 282°
2026-05-08 22:10 -34.82073 -58.54422 72 ft 24 kts 282°
2026-05-08 22:10 -34.82014 -58.54547 69 ft 15 kts
2026-05-08 22:11 -34.81936 -58.54494 72 ft 9 kts 34°
2026-05-08 22:11 -34.81929 -58.54488 72 ft 0 kts 35°
2026-05-08 22:11 -34.81927 -58.54487 69 ft 2 kts 34°
2026-05-08 22:12 -34.81908 -58.54472 70 ft 4 kts 33°
2026-05-08 22:12 -34.81886 -58.54454 72 ft 4 kts 32°
2026-05-08 22:12 -34.81860 -58.54433 72 ft 6 kts 36°
2026-05-08 22:12 -34.81809 -58.54390 72 ft 11 kts 27°
2026-05-08 22:13 -34.81758 -58.54426 69 ft 7 kts 289°
2026-05-08 22:13 -34.81715 -58.54450 69 ft 8 kts
2026-05-08 22:13 -34.81664 -58.54438 69 ft 6 kts
2026-05-08 22:13 -34.81643 -58.54433 66 ft 0 kts 12°
2026-05-08 22:16 -34.81644 -58.54433 66 ft 0 kts 12°